• In Deutschland
  • Länderverzeichnis
  • Für 7 Tage
  • Wassertemperatur
  • Satellitenkarten
  • Wetterkarte
  • Widgets
  • user-avatar
    Anmelden

    Stündliche Wetter Baraki Barak

    Heute, 23 Juni, Freitag

    Zeit Temperatur Niederschläge Wind Luftdruck Luftfeuchtigkeit
    00:00 +23°C° 0 mm 1 m/S 598 mmHg 24%
    01:00 +22°C° 0 mm 1 m/S 598 mmHg 25%
    02:00 +21°C° 0 mm 1 m/S 597 mmHg 25%
    03:00 +21°C° 0 mm 1 m/S 597 mmHg 25%
    04:00 +20°C° 0 mm 1 m/S 597 mmHg 25%
    05:00 +19°C° 0 mm 2 m/S 596 mmHg 19%
    06:00 +21°C° 0 mm 2 m/S 597 mmHg 18%
    07:00 +24°C° 0 mm 1 m/S 598 mmHg 17%
    08:00 +25°C° 0 mm 1 m/S 599 mmHg 16%
    09:00 +27°C° 0 mm 1 m/S 599 mmHg 15%
    10:00 +28°C° 0 mm 1 m/S 600 mmHg 13%
    11:00 +30°C° 0 mm 1 m/S 600 mmHg 11%
    12:00 +31°C° 0 mm 1 m/S 600 mmHg 11%
    13:00 +32°C° 0 mm 2 m/S 600 mmHg 10%
    14:00 +34°C° 0 mm 2 m/S 601 mmHg 9%
    15:00 +34°C° 0 mm 2 m/S 600 mmHg 9%
    16:00 +35°C° 0 mm 3 m/S 600 mmHg 9%
    17:00 +35°C° 0 mm 5 m/S 600 mmHg 8%
    18:00 +34°C° 0 mm 4 m/S 599 mmHg 10%
    19:00 +32°C° 0 mm 4 m/S 599 mmHg 12%
    20:00 +30°C° 0 mm 3 m/S 599 mmHg 14%
    21:00 +28°C° 0 mm 2 m/S 599 mmHg 16%
    22:00 +27°C° 0 mm 2 m/S 599 mmHg 18%
    23:00 +26°C° 0 mm 1 m/S 598 mmHg 20%

    Morgen, 24 Juni, Samstag

    Zeit Temperatur Niederschläge Wind Luftdruck Luftfeuchtigkeit
    00:00 +25°C° 0 mm 1 m/S 598 mmHg 20%
    01:00 +25°C° 0 mm 1 m/S 597 mmHg 20%
    02:00 +24°C° 0 mm 1 m/S 597 mmHg 21%
    03:00 +23°C° 0 mm 1 m/S 597 mmHg 22%
    04:00 +23°C° 0 mm 1 m/S 596 mmHg 23%
    05:00 +22°C° 0 mm 1 m/S 596 mmHg 25%
    06:00 +24°C° 0 mm 1 m/S 597 mmHg 23%
    07:00 +25°C° 0 mm 1 m/S 597 mmHg 21%
    08:00 +27°C° 0 mm 1 m/S 598 mmHg 19%
    09:00 +28°C° 0 mm 1 m/S 599 mmHg 17%
    10:00 +30°C° 0 mm 2 m/S 599 mmHg 15%
    11:00 +31°C° 0 mm 2 m/S 599 mmHg 13%
    12:00 +34°C° 0 mm 2 m/S 599 mmHg 12%
    13:00 +35°C° 0 mm 3 m/S 599 mmHg 11%
    14:00 +36°C° 0 mm 3 m/S 599 mmHg 10%
    15:00 +36°C° 0 mm 3 m/S 599 mmHg 10%
    16:00 +36°C° 0 mm 4 m/S 599 mmHg 10%
    17:00 +36°C° 0 mm 4 m/S 598 mmHg 10%
    18:00 +34°C° 0 mm 4 m/S 598 mmHg 12%
    19:00 +33°C° 0 mm 4 m/S 598 mmHg 15%
    20:00 +30°C° 0 mm 4 m/S 597 mmHg 18%
    21:00 +29°C° 0 mm 3 m/S 597 mmHg 21%
    22:00 +27°C° 0 mm 3 m/S 597 mmHg 25%
    23:00 +26°C° 0 mm 2 m/S 597 mmHg 28%

    übermorgen, 25 Juni, Sonntag

    Zeit Temperatur Niederschläge Wind Luftdruck Luftfeuchtigkeit
    00:00 +26°C° 0 mm 2 m/S 597 mmHg 30%
    01:00 +25°C° 0 mm 2 m/S 597 mmHg 33%
    02:00 +24°C° 0 mm 2 m/S 596 mmHg 35%
    03:00 +23°C° 0 mm 1 m/S 596 mmHg 37%
    04:00 +23°C° 0 mm 1 m/S 596 mmHg 39%
    05:00 +22°C° 0 mm 1 m/S 596 mmHg 41%
    06:00 +23°C° 0 mm 2 m/S 597 mmHg 37%
    07:00 +25°C° 0 mm 2 m/S 597 mmHg 34%
    08:00 +26°C° 0 mm 2 m/S 598 mmHg 31%
    09:00 +27°C° 0 mm 2 m/S 598 mmHg 29%
    10:00 +28°C° 0 mm 2 m/S 599 mmHg 27%
    11:00 +29°C° 0 mm 2 m/S 599 mmHg 26%
    12:00 +30°C° 0 mm 2 m/S 599 mmHg 25%
    13:00 +31°C° 0 mm 2 m/S 599 mmHg 24%
    14:00 +32°C° 0 mm 2 m/S 599 mmHg 23%
    15:00 +33°C° 0,1 mm 3 m/S 598 mmHg 25%
    16:00 +33°C° 0,1 mm 4 m/S 598 mmHg 27%
    17:00 +32°C° 0,1 mm 5 m/S 597 mmHg 29%
    18:00 +30°C° 0,3 mm 4 m/S 597 mmHg 32%
    19:00 +30°C° 0,3 mm 4 m/S 597 mmHg 35%
    20:00 +29°C° 0,3 mm 3 m/S 597 mmHg 38%
    21:00 +28°C° 0,3 mm 3 m/S 597 mmHg 37%
    22:00 +27°C° 0,3 mm 2 m/S 598 mmHg 37%
    23:00 +27°C° 0,3 mm 2 m/S 598 mmHg 36%

    26 Juni, Montag

    Zeit Temperatur Niederschläge Wind Luftdruck Luftfeuchtigkeit
    00:00 +26°C° 0 mm 2 m/S 598 mmHg 37%
    01:00 +25°C° 0 mm 1 m/S 597 mmHg 38%
    02:00 +25°C° 0 mm 1 m/S 597 mmHg 38%
    03:00 +24°C° 0 mm 1 m/S 597 mmHg 39%
    04:00 +24°C° 0 mm 1 m/S 597 mmHg 39%
    05:00 +23°C° 0 mm 1 m/S 597 mmHg 39%
    06:00 +24°C° 0 mm 1 m/S 597 mmHg 37%
    07:00 +25°C° 0 mm 1 m/S 598 mmHg 35%
    08:00 +26°C° 0 mm 2 m/S 599 mmHg 33%
    09:00 +27°C° 0 mm 1 m/S 599 mmHg 33%
    10:00 +28°C° 0 mm 1 m/S 599 mmHg 32%
    11:00 +29°C° 0 mm 1 m/S 599 mmHg 31%
    12:00 +30°C° 0,1 mm 1 m/S 599 mmHg 28%
    13:00 +32°C° 0,1 mm 1 m/S 599 mmHg 26%
    14:00 +34°C° 0,1 mm 2 m/S 599 mmHg 23%
    15:00 +34°C° 0 mm 2 m/S 599 mmHg 22%
    16:00 +34°C° 0 mm 2 m/S 599 mmHg 22%
    17:00 +34°C° 0 mm 2 m/S 599 mmHg 21%
    18:00 +33°C° 0 mm 3 m/S 598 mmHg 23%
    19:00 +31°C° 0 mm 3 m/S 598 mmHg 24%
    20:00 +30°C° 0 mm 4 m/S 598 mmHg 26%
    21:00 +29°C° 0 mm 3 m/S 598 mmHg 27%
    22:00 +28°C° 0 mm 3 m/S 598 mmHg 28%
    23:00 +27°C° 0 mm 3 m/S 598 mmHg 29%

    27 Juni, Dienstag

    Zeit Temperatur Niederschläge Wind Luftdruck Luftfeuchtigkeit
    00:00 +26°C° 0,1 mm 3 m/S 598 mmHg 30%
    01:00 +25°C° 0,1 mm 2 m/S 597 mmHg 31%
    02:00 +24°C° 0,1 mm 2 m/S 597 mmHg 32%
    03:00 +24°C° 0 mm 2 m/S 597 mmHg 33%
    04:00 +23°C° 0 mm 2 m/S 597 mmHg 33%
    05:00 +23°C° 0 mm 2 m/S 597 mmHg 34%
    06:00 +24°C° 0 mm 2 m/S 597 mmHg 32%
    07:00 +25°C° 0 mm 2 m/S 598 mmHg 30%
    08:00 +26°C° 0 mm 2 m/S 598 mmHg 27%
    09:00 +27°C° 0 mm 2 m/S 599 mmHg 26%
    10:00 +28°C° 0 mm 2 m/S 599 mmHg 25%
    11:00 +29°C° 0 mm 2 m/S 599 mmHg 24%
    12:00 +30°C° 0 mm 2 m/S 599 mmHg 22%
    13:00 +31°C° 0 mm 1 m/S 599 mmHg 21%
    14:00 +32°C° 0 mm 1 m/S 599 mmHg 19%
    15:00 +32°C° 0 mm 2 m/S 599 mmHg 19%
    16:00 +32°C° 0 mm 2 m/S 598 mmHg 19%
    17:00 +32°C° 0 mm 2 m/S 598 mmHg 19%
    18:00 +31°C° 0,1 mm 3 m/S 598 mmHg 21%
    19:00 +30°C° 0,1 mm 3 m/S 598 mmHg 22%
    20:00 +29°C° 0,1 mm 4 m/S 598 mmHg 24%
    21:00 +28°C° 0,1 mm 4 m/S 598 mmHg 26%
    22:00 +27°C° 0,1 mm 3 m/S 597 mmHg 28%
    23:00 +26°C° 0,1 mm 3 m/S 597 mmHg 30%

    28 Juni, Mittwoch

    Zeit Temperatur Niederschläge Wind Luftdruck Luftfeuchtigkeit
    00:00 +25°C° 0 mm 3 m/S 597 mmHg 31%
    01:00 +25°C° 0 mm 2 m/S 597 mmHg 32%
    02:00 +24°C° 0 mm 2 m/S 596 mmHg 32%
    03:00 +24°C° 0 mm 2 m/S 596 mmHg 32%
    04:00 +23°C° 0 mm 2 m/S 596 mmHg 32%
    05:00 +23°C° 0 mm 2 m/S 596 mmHg 33%
    06:00 +24°C° 0 mm 2 m/S 597 mmHg 30%
    07:00 +25°C° 0 mm 2 m/S 597 mmHg 27%
    08:00 +26°C° 0 mm 2 m/S 598 mmHg 25%
    09:00 +27°C° 0 mm 2 m/S 598 mmHg 24%
    10:00 +28°C° 0 mm 2 m/S 598 mmHg 23%
    11:00 +29°C° 0 mm 1 m/S 599 mmHg 22%
    12:00 +30°C° 0 mm 1 m/S 599 mmHg 21%
    13:00 +31°C° 0 mm 1 m/S 598 mmHg 20%
    14:00 +32°C° 0 mm 1 m/S 598 mmHg 18%
    15:00 +32°C° 0,2 mm 2 m/S 598 mmHg 19%
    16:00 +33°C° 0,2 mm 3 m/S 598 mmHg 21%
    17:00 +31°C° 0,2 mm 3 m/S 597 mmHg 22%
    18:00 +30°C° 0,3 mm 3 m/S 597 mmHg 25%
    19:00 +29°C° 0,3 mm 3 m/S 597 mmHg 28%
    20:00 +28°C° 0,3 mm 3 m/S 597 mmHg 31%
    21:00 +27°C° 0,3 mm 2 m/S 597 mmHg 33%
    22:00 +27°C° 0,3 mm 2 m/S 597 mmHg 35%
    23:00 +26°C° 0,3 mm 1 m/S 597 mmHg 37%
    Mehr zeigen